| time (UTC) | temp F | wind direction | speed knots | gust knots | rain 1hr in | rain 24hr in | rain mn in | humidity % | barometer mb |
| 20260905220329 | 71 | 24 | 2.6 | 4.3 | 0.00 | 0.03 | 0.03 | 75 | 1013.7 |
| 20260905215828 | 71 | 25 | 2.6 | 4.3 | 0.00 | 0.03 | 0.03 | 75 | 1013.4 |
| 20260905215324 | 71 | 23 | 0.9 | 1.7 | 0.00 | 0.03 | 0.03 | 74 | 1013.1 |
| 20260905214820 | 71 | 14 | 8.7 | 11.3 | 0.00 | 0.03 | 0.03 | 73 | 1013.3 |
| 20260905214315 | 72 | 38 | 3.5 | 4.3 | 0.00 | 0.03 | 0.03 | 73 | 1013.3 |
| 20260905213810 | 71 | 53 | 2.6 | 4.3 | 0.00 | 0.03 | 0.03 | 73 | 1013.1 |
| 20260905213307 | 72 | 47 | 3.5 | 5.2 | 0.00 | 0.03 | 0.03 | 72 | 1013.2 |
| 20260905212807 | 72 | 53 | 5.2 | 8.7 | 0.00 | 0.03 | 0.03 | 73 | 1013.1 |
| 20260905212301 | 72 | 42 | 6.1 | 7.8 | 0.00 | 0.03 | 0.03 | 73 | 1012.8 |
| 20260905211800 | 73 | 39 | 2.6 | 7.0 | 0.00 | 0.03 | 0.03 | 72 | 1013.0 |
| 20260905211256 | 73 | 55 | 3.5 | 5.2 | 0.00 | 0.03 | 0.03 | 72 | 1013.1 |
| 20260905210753 | 73 | 26 | 3.5 | 4.3 | 0.00 | 0.03 | 0.03 | 72 | 1013.1 |
| 20260905210252 | 73 | 56 | 5.2 | 8.7 | 0.00 | 0.03 | 0.03 | 71 | 1012.8 |
| 20260905205751 | 73 | 35 | 3.5 | 4.3 | 0.00 | 0.03 | 0.03 | 71 | 1012.8 |
| 20260905205246 | 74 | 318 | 1.7 | 1.7 | 0.00 | 0.03 | 0.03 | 71 | 1012.6 |
| 20260905204745 | 73 | 65 | 1.7 | 1.7 | 0.00 | 0.03 | 0.03 | 71 | 1012.8 |
| 20260905204241 | 73 | 75 | 0.9 | 0.9 | 0.00 | 0.03 | 0.03 | 72 | 1012.7 |
| 20260905203740 | 74 | 36 | 5.2 | 6.1 | 0.00 | 0.03 | 0.03 | 70 | 1012.5 |
| 20260905203236 | 74 | 76 | 3.5 | 7.0 | 0.00 | 0.03 | 0.03 | 70 | 1012.6 |
| 20260905202732 | 74 | 41 | 4.3 | 7.0 | 0.00 | 0.03 | 0.03 | 70 | 1012.6 |
| 20260905202227 | 74 | 29 | 3.5 | 5.2 | 0.00 | 0.03 | 0.03 | 69 | 1012.5 |
| 20260905201722 | 73 | 36 | 5.2 | 7.8 | 0.00 | 0.03 | 0.03 | 70 | 1012.5 |
| 20260905201222 | 73 | 41 | 6.1 | 7.8 | 0.00 | 0.03 | 0.03 | 70 | 1012.6 |
| 20260905200718 | 73 | 25 | 5.2 | 7.8 | 0.00 | 0.03 | 0.03 | 70 | 1012.5 |
| 20260905200213 | 74 | 7 | 5.2 | 7.0 | 0.00 | 0.03 | 0.03 | 70 | 1012.4 |
| 20260905195711 | 74 | 60 | 3.5 | 4.3 | 0.00 | 0.03 | 0.03 | 71 | 1012.6 |
| 20260905195206 | 74 | 22 | 2.6 | 2.6 | 0.00 | 0.03 | 0.03 | 70 | 1012.4 |
| 20260905194702 | 74 | 97 | 7.0 | 11.3 | 0.00 | 0.03 | 0.03 | 70 | 1012.4 |
| 20260905194201 | 74 | 58 | 5.2 | 7.0 | 0.00 | 0.03 | 0.03 | 71 | 1012.5 |
| 20260905193655 | 73 | 356 | 3.5 | 5.2 | 0.00 | 0.03 | 0.03 | 72 | 1012.8 |
| 20260905193150 | 73 | 57 | 3.5 | 5.2 | 0.00 | 0.03 | 0.03 | 71 | 1012.7 |
| 20260905192646 | 73 | 7 | 5.2 | 7.0 | 0.00 | 0.03 | 0.03 | 71 | 1012.5 |
| 20260905192142 | 73 | 48 | 5.2 | 7.8 | 0.00 | 0.03 | 0.03 | 71 | 1012.6 |
| 20260905191642 | 73 | 52 | 3.5 | 6.1 | 0.00 | 0.03 | 0.03 | 71 | 1012.7 |
| 20260905191140 | 74 | 34 | 3.5 | 5.2 | 0.00 | 0.03 | 0.03 | 72 | 1012.8 |
| 20260905190639 | 73 | 33 | 3.5 | 6.1 | 0.00 | 0.03 | 0.03 | 73 | 1012.5 |
| 20260905190138 | 73 | 50 | 3.5 | 6.1 | 0.00 | 0.03 | 0.03 | 73 | 1012.6 |
| 20260905185637 | 73 | 46 | 4.3 | 5.2 | 0.00 | 0.03 | 0.03 | 72 | 1012.7 |
| 20260905185138 | 73 | 92 | 0.9 | 0.9 | 0.00 | 0.03 | 0.03 | 74 | 1012.7 |
| 20260905184631 | 73 | 13 | 7.8 | 9.6 | 0.00 | 0.03 | 0.03 | 73 | 1012.9 |
| 20260905184130 | 73 | 19 | 3.5 | 6.1 | 0.00 | 0.03 | 0.03 | 72 | 1012.7 |
| 20260905183625 | 73 | 24 | 0.9 | 0.9 | 0.00 | 0.03 | 0.03 | 74 | 1012.8 |
| 20260905183120 | 73 | 67 | 5.2 | 7.8 | 0.00 | 0.03 | 0.03 | 73 | 1012.7 |
| 20260905182619 | 72 | 49 | 3.5 | 4.3 | 0.00 | 0.03 | 0.03 | 73 | 1012.8 |
| 20260905182120 | 73 | 324 | 3.5 | 5.2 | 0.00 | 0.03 | 0.03 | 74 | 1012.7 |
| 20260905181619 | 72 | 83 | 2.6 | 4.3 | 0.00 | 0.03 | 0.03 | 74 | 1012.7 |
| 20260905181119 | 73 | 60 | 4.3 | 6.1 | 0.00 | 0.03 | 0.03 | 74 | 1012.8 |
| 20260905180614 | 73 | 33 | 3.5 | 5.2 | 0.00 | 0.03 | 0.03 | 74 | 1012.8 |
| 20260905180109 | 73 | 62 | 1.7 | 2.6 | 0.00 | 0.03 | 0.03 | 75 | 1012.7 |
| 20260905175608 | 73 | 51 | 1.7 | 2.6 | 0.00 | 0.03 | 0.03 | 74 | 1012.6 |
| 20260905175103 | 72 | 9 | 2.6 | 6.1 | 0.00 | 0.03 | 0.03 | 75 | 1012.8 |
| 20260905174559 | 72 | 30 | 2.6 | 5.2 | 0.00 | 0.03 | 0.03 | 77 | 1012.6 |
| 20260905174054 | 72 | 41 | 1.7 | 1.7 | 0.00 | 0.03 | 0.03 | 77 | 1012.7 |
| 20260905173551 | 72 | 71 | 3.5 | 4.3 | 0.00 | 0.03 | 0.03 | 77 | 1012.9 |
| 20260905173046 | 73 | 23 | 3.5 | 5.2 | 0.00 | 0.03 | 0.03 | 76 | 1012.5 |
| 20260905172545 | 73 | 0 | 5.2 | 6.1 | 0.00 | 0.03 | 0.03 | 76 | 1012.6 |
| 20260905172040 | 72 | 351 | 4.3 | 6.1 | 0.00 | 0.03 | 0.03 | 76 | 1012.8 |
| 20260905171537 | 72 | 48 | 1.7 | 2.6 | 0.00 | 0.03 | 0.03 | 78 | 1012.7 |
| 20260905171032 | 71 | 58 | 2.6 | 2.6 | 0.00 | 0.03 | 0.03 | 79 | 1012.8 |
| 20260905170529 | 72 | 38 | 0.9 | 1.7 | 0.00 | 0.03 | 0.03 | 79 | 1012.9 |
| 20260905170023 | 72 | 3 | 3.5 | 5.2 | 0.00 | 0.03 | 0.03 | 79 | 1012.9 |
| 20260905165519 | 72 | 349 | 6.1 | 7.8 | 0.00 | 0.03 | 0.03 | 79 | 1012.8 |
| 20260905165014 | 71 | 35 | 1.7 | 2.6 | 0.00 | 0.03 | 0.03 | 81 | 1012.8 |
| 20260905164513 | 71 | 52 | 3.5 | 5.2 | 0.00 | 0.03 | 0.03 | 82 | 1012.8 |
| 20260905164008 | 72 | 87 | 0.9 | 1.7 | 0.00 | 0.03 | 0.03 | 85 | 1012.9 |
| 20260905163504 | 71 | 36 | 0.9 | 0.9 | 0.00 | 0.03 | 0.03 | 86 | 1012.7 |
| 20260905163000 | 70 | 22 | 0.9 | 0.9 | 0.00 | 0.03 | 0.03 | 87 | 1013.1 |
| 20260905162455 | 70 | 352 | 2.6 | 4.3 | 0.00 | 0.03 | 0.03 | 86 | 1013.1 |
| 20260905161950 | 70 | 58 | 0.9 | 1.7 | 0.00 | 0.03 | 0.03 | 88 | 1012.9 |
| 20260905161449 | 69 | 49 | 2.6 | 2.6 | 0.00 | 0.03 | 0.03 | 89 | 1012.9 |
| 20260905160948 | 69 | 359 | 3.5 | 4.3 | 0.00 | 0.03 | 0.03 | 91 | 1013.1 |
| 20260905160442 | 68 | 327 | 3.5 | 4.3 | 0.00 | 0.03 | 0.03 | 92 | 1013.1 |
| 20260905155941 | 68 | 1 | 1.7 | 1.7 | 0.00 | 0.03 | 0.03 | 94 | 1013.3 |
| 20260905155436 | 67 | 24 | 0.0 | 0.9 | 0.12 | 0.03 | 0.03 | 93 | 1013.2 |
| 20260905154935 | 67 | 58 | 0.9 | 0.9 | 0.19 | 0.03 | 0.03 | 91 | 1013.2 |
| 20260905154430 | 69 | 71 | 2.6 | 2.6 | 0.12 | 0.02 | 0.02 | 88 | 1013.3 |
| 20260905153926 | 69 | 50 | 1.7 | 1.7 | 0.00 | 0.00 | 0.00 | 85 | 1013.2 |
| 20260905153422 | 69 | 82 | 1.7 | 2.6 | 0.00 | 0.00 | 0.00 | 85 | 1013.2 |
| 20260905152921 | 69 | 34 | 0.0 | 0.0 | 0.00 | 0.00 | 0.00 | 86 | 1013.3 |
| 20260905152420 | 69 | 55 | 2.6 | 5.2 | 0.00 | 0.00 | 0.00 | 86 | 1013.4 |
| 20260905151916 | 69 | 81 | 2.6 | 4.3 | 0.00 | 0.00 | 0.00 | 87 | 1013.3 |
| 20260905151412 | 69 | 71 | 0.9 | 0.9 | 0.00 | 0.00 | 0.00 | 88 | 1013.5 |
| 20260905150912 | 68 | 91 | 0.0 | 1.7 | 0.00 | 0.00 | 0.00 | 87 | 1013.3 |
| 20260905150412 | 68 | 56 | 0.9 | 0.9 | 0.00 | 0.00 | 0.00 | 87 | 1013.4 |
| 20260905145909 | 68 | 15 | 2.6 | 4.3 | 0.00 | 0.00 | 0.00 | 87 | 1013.6 |
| 20260905145410 | 69 | 44 | 4.3 | 5.2 | 0.00 | 0.00 | 0.00 | 86 | 1013.4 |
| 20260905144909 | 68 | 39 | 1.7 | 2.6 | 0.00 | 0.00 | 0.00 | 90 | 1013.3 |
| 20260905144405 | 67 | 55 | 0.9 | 1.7 | 0.00 | 0.00 | 0.00 | 90 | 1013.2 |
| 20260905143903 | 67 | 43 | 2.6 | 2.6 | 0.00 | 0.00 | 0.00 | 90 | 1013.3 |
| 20260905143358 | 67 | 27 | 1.7 | 2.6 | 0.00 | 0.00 | 0.00 | 90 | 1013.2 |
| 20260905142857 | 67 | 37 | 2.6 | 4.3 | 0.00 | 0.00 | 0.00 | 90 | 1013.6 |
| 20260905142356 | 67 | 100 | 0.9 | 0.9 | 0.00 | 0.00 | 0.00 | 91 | 1013.4 |
| 20260905141852 | 67 | 53 | 1.7 | 2.6 | 0.00 | 0.00 | 0.00 | 91 | 1013.6 |
| 20260905141347 | 66 | 95 | 2.6 | 4.3 | 0.00 | 0.00 | 0.00 | 91 | 1013.4 |
| 20260905140843 | 66 | 32 | 0.0 | 0.9 | 0.00 | 0.00 | 0.00 | 92 | 1013.6 |
| 20260905140343 | 66 | 38 | 1.7 | 1.7 | 0.00 | 0.00 | 0.00 | 92 | 1013.5 |
| 20260905135842 | 67 | 57 | 0.9 | 0.9 | 0.00 | 0.00 | 0.00 | 92 | 1013.6 |
| 20260905135338 | 66 | 83 | 0.0 | 0.0 | 0.00 | 0.00 | 0.00 | 92 | 1013.4 |
| 20260905134833 | 67 | 90 | 0.9 | 0.9 | 0.00 | 0.00 | 0.00 | 93 | 1013.6 |
| 20260905134332 | 66 | 39 | 0.9 | 0.9 | 0.00 | 0.00 | 0.00 | 93 | 1013.4 |
| 20260905133826 | 66 | 93 | 0.9 | 1.7 | 0.00 | 0.00 | 0.00 | 95 | 1013.7 |
| 20260905133321 | 65 | 72 | 0.0 | 0.0 | 0.00 | 0.00 | 0.00 | 97 | 1013.6 |
| 20260905132820 | 64 | 79 | 1.7 | 1.7 | 0.00 | 0.00 | 0.00 | 98 | 1013.7 |
| 20260905132317 | 64 | 317 | 0.0 | 0.9 | 0.00 | 0.00 | 0.00 | 99 | 1013.5 |
| 20260905131810 | 64 | 295 | 0.0 | 0.0 | 0.00 | 0.00 | 0.00 | 99 | 1013.4 |
| 20260905131306 | 65 | 13 | 0.0 | 0.9 | 0.00 | 0.00 | 0.00 | 99 | 1013.3 |
| 20260905130802 | 63 | 87 | 0.0 | 0.9 | 0.00 | 0.00 | 0.00 | 99 | 1013.3 |
| 20260905130300 | 63 | 83 | 0.0 | 0.9 | 0.00 | 0.00 | 0.00 | 99 | 1013.3 |
| 20260905125756 | 64 | 77 | 0.0 | 0.0 | 0.00 | 0.00 | 0.00 | 99 | 1013.3 |
| 20260905125256 | 64 | 79 | 0.0 | 0.9 | 0.00 | 0.00 | 0.00 | 99 | 1013.3 |
| 20260905124752 | 62 | 52 | 0.0 | 0.9 | 0.00 | 0.00 | 0.00 | 99 | 1013.1 |
| 20260905124248 | 62 | 51 | 0.0 | 0.0 | 0.00 | 0.00 | 0.00 | 99 | 1013.2 |
| 20260905123743 | 62 | 51 | 0.0 | 0.0 | 0.00 | 0.00 | 0.00 | 99 | 1013.1 |
| 20260905123241 | 62 | 51 | 0.0 | 0.0 | 0.00 | 0.00 | 0.00 | 99 | 1013.3 |
| 20260905122741 | 61 | 51 | 0.0 | 0.0 | 0.00 | 0.00 | 0.00 | 99 | 1013.2 |
| 20260905122240 | 62 | 60 | 0.0 | 0.9 | 0.00 | 0.00 | 0.00 | 99 | 1012.9 |
| 20260905121735 | 62 | 86 | 0.0 | 0.0 | 0.00 | 0.00 | 0.00 | 99 | 1013.2 |
| 20260905121232 | 61 | 93 | 0.0 | 0.9 | 0.00 | 0.00 | 0.00 | 99 | 1013.3 |
| 20260905120730 | 61 | 93 | 0.0 | 0.9 | 0.00 | 0.00 | 0.00 | 99 | 1013.1 |
| 20260905120230 | 61 | 65 | 0.9 | 0.9 | 0.00 | 0.00 | 0.00 | 99 | 1013.0 |
| 20260905115726 | 60 | 57 | 0.0 | 0.9 | 0.00 | 0.00 | 0.00 | 99 | 1013.0 |
| 20260905115225 | 60 | 62 | 0.0 | 0.0 | 0.00 | 0.00 | 0.00 | 99 | 1013.0 |
| 20260905114720 | 60 | 58 | 0.0 | 0.0 | 0.00 | 0.00 | 0.00 | 99 | 1012.9 |
| 20260905114219 | 60 | 44 | 0.9 | 0.9 | 0.00 | 0.00 | 0.00 | 99 | 1012.7 |
| 20260905113718 | 59 | 22 | 0.9 | 0.9 | 0.00 | 0.00 | 0.00 | 99 | 1012.7 |
| 20260905113214 | 59 | 21 | 0.0 | 0.0 | 0.00 | 0.00 | 0.00 | 99 | 1012.6 |
| 20260905112714 | 58 | 21 | 0.0 | 0.0 | 0.00 | 0.00 | 0.00 | 99 | 1012.3 |
| 20260905112209 | 58 | 20 | 0.0 | 0.0 | 0.00 | 0.00 | 0.00 | 99 | 1012.6 |
| 20260905111709 | 57 | 20 | 0.0 | 0.0 | 0.00 | 0.00 | 0.00 | 99 | 1012.5 |
| 20260905111209 | 57 | 21 | 0.0 | 0.0 | 0.00 | 0.00 | 0.00 | 99 | 1012.5 |
| 20260905110708 | 57 | 20 | 0.0 | 0.0 | 0.00 | 0.00 | 0.00 | 99 | 1012.5 |
| 20260905110203 | 57 | 13 | 0.0 | 0.0 | 0.00 | 0.00 | 0.00 | 99 | 1012.6 |
| 20260905105659 | 57 | 21 | 0.0 | 0.0 | 0.00 | 0.00 | 0.00 | 99 | 1012.4 |
| 20260905105157 | 57 | 21 | 0.0 | 0.0 | 0.00 | 0.00 | 0.00 | 99 | 1012.5 |
| 20260905104652 | 56 | 21 | 0.0 | 0.0 | 0.00 | 0.00 | 0.00 | 99 | 1012.5 |
| 20260905104148 | 57 | 11 | 0.0 | 0.0 | 0.00 | 0.00 | 0.00 | 99 | 1012.4 |
| 20260905103643 | 57 | 338 | 0.9 | 0.9 | 0.00 | 0.00 | 0.00 | 99 | 1012.3 |
| 20260905103139 | 56 | 334 | 0.9 | 1.7 | 0.00 | 0.00 | 0.00 | 99 | 1012.1 |
| 20260905102634 | 56 | 3 | 0.0 | 0.0 | 0.00 | 0.00 | 0.00 | 99 | 1011.9 |
| 20260905102131 | 56 | 16 | 0.9 | 0.9 | 0.00 | 0.00 | 0.00 | 99 | 1011.9 |
| 20260905101629 | 55 | 32 | 0.9 | 0.9 | 0.00 | 0.00 | 0.00 | 99 | 1011.9 |
| 20260905101127 | 55 | 34 | 0.0 | 0.0 | 0.00 | 0.00 | 0.00 | 99 | 1012.1 |
| 20260905100625 | 55 | 34 | 0.0 | 0.0 | 0.00 | 0.00 | 0.00 | 99 | 1011.9 |
| 20260905100120 | 55 | 33 | 0.0 | 0.0 | 0.00 | 0.00 | 0.00 | 99 | 1012.0 |
| 20260905095618 | 55 | 34 | 0.0 | 0.0 | 0.00 | 0.00 | 0.00 | 99 | 1012.1 |
| 20260905095114 | 55 | 34 | 0.0 | 0.0 | 0.00 | 0.00 | 0.00 | 99 | 1012.1 |
| 20260905094609 | 56 | 34 | 0.0 | 0.0 | 0.00 | 0.00 | 0.00 | 99 | 1012.0 |
| 20260905094108 | 56 | 34 | 0.0 | 0.0 | 0.00 | 0.00 | 0.00 | 99 | 1012.0 |
| 20260905093608 | 56 | 34 | 0.0 | 0.0 | 0.00 | 0.00 | 0.00 | 99 | 1011.9 |
| 20260905093105 | 56 | 34 | 0.0 | 0.0 | 0.00 | 0.00 | 0.00 | 99 | 1012.0 |
| 20260905092604 | 56 | 359 | 0.0 | 0.0 | 0.00 | 0.00 | 0.00 | 99 | 1011.8 |
| 20260905092101 | 56 | 10 | 0.9 | 0.9 | 0.00 | 0.00 | 0.00 | 99 | 1011.9 |
| 20260905091559 | 56 | 333 | 0.9 | 1.7 | 0.00 | 0.00 | 0.00 | 99 | 1011.9 |
| 20260905091054 | 56 | 72 | 0.9 | 0.9 | 0.00 | 0.00 | 0.00 | 99 | 1011.8 |
| 20260905090554 | 57 | 22 | 0.0 | 0.0 | 0.00 | 0.00 | 0.00 | 99 | 1011.7 |
| 20260905090049 | 56 | 358 | 0.9 | 0.9 | 0.00 | 0.00 | 0.00 | 99 | 1011.7 |
| 20260905085548 | 57 | 9 | 0.9 | 0.9 | 0.00 | 0.00 | 0.00 | 99 | 1011.6 |
| 20260905085044 | 56 | 21 | 0.0 | 0.0 | 0.00 | 0.00 | 0.00 | 99 | 1011.6 |
| 20260905084543 | 56 | 0 | 0.0 | 0.0 | 0.00 | 0.00 | 0.00 | 99 | 1011.7 |
| 20260905084038 | 56 | 359 | 0.0 | 0.0 | 0.00 | 0.00 | 0.00 | 99 | 1011.6 |
| 20260905083533 | 56 | 358 | 0.0 | 0.0 | 0.00 | 0.00 | 0.00 | 99 | 1011.4 |
| 20260905083030 | 56 | 358 | 0.0 | 0.0 | 0.00 | 0.00 | 0.00 | 99 | 1011.4 |
| 20260905082525 | 56 | 358 | 0.0 | 0.0 | 0.00 | 0.00 | 0.00 | 99 | 1011.5 |
| 20260905082021 | 56 | 329 | 0.0 | 0.0 | 0.00 | 0.00 | 0.00 | 99 | 1011.5 |
| 20260905081521 | 57 | 302 | 0.0 | 0.0 | 0.00 | 0.00 | 0.00 | 99 | 1011.4 |
| 20260905081021 | 57 | 301 | 0.0 | 0.0 | 0.00 | 0.00 | 0.00 | 99 | 1011.5 |
| 20260905080520 | 58 | 299 | 0.0 | 0.0 | 0.00 | 0.00 | 0.00 | 99 | 1011.5 |
| 20260905080016 | 57 | 306 | 0.0 | 0.0 | 0.00 | 0.00 | 0.00 | 99 | 1011.6 |
| 20260905075509 | 58 | 320 | 0.0 | 0.0 | 0.00 | 0.00 | 0.00 | 99 | 1011.5 |
| 20260905075008 | 58 | 314 | 0.9 | 0.9 | 0.00 | 0.00 | 0.00 | 99 | 1011.7 |
| 20260905074503 | 57 | 338 | 0.0 | 0.0 | 0.00 | 0.00 | 0.00 | 99 | 1011.6 |
| 20260905073959 | 58 | 5 | 0.0 | 0.0 | 0.00 | 0.00 | 0.00 | 99 | 1011.6 |
| 20260905073454 | 57 | 4 | 0.9 | 0.9 | 0.00 | 0.00 | 0.00 | 99 | 1011.5 |
| 20260905072949 | 58 | 41 | 0.0 | 0.0 | 0.00 | 0.00 | 0.00 | 99 | 1011.7 |
| 20260905072444 | 57 | 42 | 0.0 | 0.0 | 0.00 | 0.00 | 0.00 | 99 | 1011.9 |
| 20260905071939 | 59 | 260 | 0.0 | 0.0 | 0.00 | 0.00 | 0.00 | 99 | 1011.6 |
| 20260905071437 | 58 | 285 | 0.0 | 0.9 | 0.00 | 0.00 | 0.00 | 99 | 1011.8 |
| 20260905070935 | 58 | 272 | 0.0 | 0.0 | 0.00 | 0.00 | 0.00 | 99 | 1011.8 |
| 20260905070432 | 59 | 287 | 0.9 | 0.9 | 0.00 | 0.00 | 0.00 | 99 | 1011.9 |
| 20260905065931 | 59 | 262 | 1.7 | 1.7 | 0.00 | 0.00 | 0.00 | 99 | 1011.9 |
| 20260905065430 | 59 | 311 | 0.9 | 0.9 | 0.00 | 0.00 | 0.00 | 99 | 1011.9 |
| 20260905064925 | 58 | 345 | 0.0 | 0.9 | 0.00 | 0.00 | 0.00 | 99 | 1011.9 |
| 20260905064420 | 58 | 42 | 0.0 | 0.0 | 0.00 | 0.00 | 0.00 | 99 | 1012.0 |
| 20260905063920 | 59 | 18 | 0.9 | 0.9 | 0.00 | 0.00 | 0.00 | 99 | 1011.9 |
| 20260905063415 | 59 | 299 | 0.9 | 0.9 | 0.00 | 0.00 | 0.00 | 99 | 1012.1 |
| 20260905062912 | 59 | 336 | 0.9 | 0.9 | 0.00 | 0.00 | 0.00 | 99 | 1012.0 |
| 20260905062406 | 59 | 33 | 0.0 | 0.0 | 0.00 | 0.00 | 0.00 | 99 | 1012.0 |
| 20260905061901 | 59 | 287 | 0.0 | 0.0 | 0.00 | 0.00 | 0.00 | 99 | 1012.1 |
| 20260905061400 | 60 | 323 | 0.9 | 0.9 | 0.00 | 0.00 | 0.00 | 99 | 1012.0 |
| 20260905060854 | 59 | 333 | 0.9 | 1.7 | 0.00 | 0.00 | 0.00 | 99 | 1012.0 |
| 20260905060352 | 59 | 355 | 0.0 | 0.0 | 0.00 | 0.00 | 0.00 | 99 | 1012.0 |
| 20260905055850 | 59 | 355 | 0.0 | 0.0 | 0.00 | 0.00 | 0.00 | 99 | 1012.1 |
| 20260905055346 | 59 | 302 | 0.0 | 0.0 | 0.00 | 0.00 | 0.00 | 99 | 1011.9 |
| 20260905054845 | 60 | 302 | 0.0 | 0.0 | 0.00 | 0.00 | 0.00 | 99 | 1012.0 |
| 20260905054341 | 60 | 301 | 0.0 | 0.0 | 0.00 | 0.00 | 0.00 | 99 | 1012.1 |
| 20260905053841 | 60 | 303 | 0.0 | 0.0 | 0.00 | 0.00 | 0.00 | 99 | 1012.1 |
| 20260905053341 | 60 | 322 | 0.0 | 0.9 | 0.00 | 0.00 | 0.00 | 99 | 1011.9 |
| 20260905052837 | 61 | 322 | 0.0 | 0.0 | 0.00 | 0.00 | 0.00 | 99 | 1011.9 |
| 20260905052336 | 60 | 204 | 0.0 | 0.0 | 0.00 | 0.00 | 0.00 | 99 | 1011.9 |
| 20260905051836 | 60 | 243 | 0.9 | 0.9 | 0.00 | 0.00 | 0.00 | 99 | 1012.1 |
| 20260905051332 | 61 | 308 | 0.9 | 0.9 | 0.00 | 0.00 | 0.00 | 99 | 1011.9 |
| 20260905050829 | 61 | 187 | 0.9 | 0.9 | 0.00 | 0.00 | 0.00 | 99 | 1012.0 |
| 20260905050325 | 61 | 185 | 0.0 | 0.0 | 0.00 | 0.00 | 0.00 | 99 | 1011.9 |
| 20260905045820 | 61 | 186 | 0.0 | 0.0 | 0.00 | 0.00 | 0.00 | 99 | 1012.1 |
| 20260905045315 | 62 | 261 | 1.7 | 1.7 | 0.00 | 0.00 | 0.00 | 99 | 1012.1 |
| 20260905044810 | 61 | 168 | 0.9 | 0.9 | 0.00 | 0.00 | 0.00 | 99 | 1012.3 |
| 20260905044306 | 61 | 37 | 0.0 | 0.0 | 0.00 | 0.00 | 0.00 | 99 | 1012.1 |
| 20260905043804 | 62 | 37 | 0.0 | 0.9 | 0.00 | 0.00 | 0.00 | 99 | 1012.1 |
| 20260905043259 | 62 | 262 | 0.9 | 1.7 | 0.00 | 0.00 | 0.00 | 99 | 1012.0 |
| 20260905042759 | 63 | 290 | 0.9 | 0.9 | 0.00 | 0.00 | 0.00 | 99 | 1012.2 |
| 20260905042259 | 63 | 303 | 0.9 | 0.9 | 0.00 | 0.00 | 0.00 | 99 | 1012.1 |
| 20260905041754 | 62 | 338 | 0.9 | 0.9 | 0.00 | 0.00 | 0.00 | 99 | 1012.3 |
| 20260905041249 | 63 | 119 | 0.0 | 0.0 | 0.00 | 0.00 | 0.00 | 99 | 1012.2 |
| 20260905040744 | 62 | 274 | 0.0 | 0.0 | 0.00 | 0.00 | 0.00 | 99 | 1012.3 |
| 20260905040243 | 62 | 274 | 0.0 | 0.9 | 0.00 | 0.00 | 0.00 | 99 | 1012.5 |
| 20260905035738 | 62 | 274 | 0.0 | 0.0 | 0.00 | 0.00 | 0.00 | 99 | 1012.2 |
| 20260905035234 | 63 | 258 | 0.9 | 0.9 | 0.00 | 0.00 | 0.00 | 99 | 1012.4 |
| 20260905034731 | 63 | 260 | 0.9 | 0.9 | 0.00 | 0.00 | 0.00 | 99 | 1012.1 |
| 20260905034230 | 63 | 233 | 0.9 | 0.9 | 0.00 | 0.00 | 0.00 | 99 | 1012.3 |
| 20260905033729 | 63 | 233 | 0.0 | 0.0 | 0.00 | 0.00 | 0.00 | 98 | 1012.3 |
| 20260905033225 | 63 | 233 | 0.0 | 0.0 | 0.00 | 0.00 | 0.00 | 98 | 1012.4 |
| 20260905032724 | 63 | 232 | 0.0 | 0.0 | 0.00 | 0.00 | 0.00 | 98 | 1012.2 |
| 20260905032220 | 64 | 240 | 0.0 | 0.0 | 0.00 | 0.00 | 0.00 | 98 | 1012.3 |
| 20260905031715 | 64 | 250 | 1.7 | 1.7 | 0.00 | 0.00 | 0.00 | 97 | 1012.3 |
| 20260905031210 | 64 | 254 | 1.7 | 1.7 | 0.00 | 0.00 | 0.00 | 97 | 1012.2 |
| 20260905030705 | 64 | 267 | 0.9 | 1.7 | 0.00 | 0.00 | 0.00 | 97 | 1012.3 |
| 20260905030200 | 64 | 268 | 1.7 | 1.7 | 0.00 | 0.00 | 0.00 | 97 | 1012.2 |
| 20260905025655 | 64 | 288 | 0.9 | 0.9 | 0.00 | 0.00 | 0.00 | 96 | 1012.2 |
| 20260905025151 | 64 | 289 | 1.7 | 1.7 | 0.00 | 0.00 | 0.00 | 95 | 1012.0 |
| 20260905024647 | 65 | 274 | 0.0 | 0.0 | 0.00 | 0.00 | 0.00 | 95 | 1012.4 |
| 20260905024142 | 65 | 290 | 1.7 | 1.7 | 0.00 | 0.00 | 0.00 | 95 | 1012.3 |
| 20260905023637 | 65 | 303 | 0.0 | 0.0 | 0.00 | 0.00 | 0.00 | 94 | 1012.0 |
| 20260905023137 | 65 | 305 | 0.9 | 0.9 | 0.00 | 0.00 | 0.00 | 94 | 1012.2 |
| 20260905022636 | 65 | 287 | 0.9 | 0.9 | 0.00 | 0.00 | 0.00 | 94 | 1012.2 |
| 20260905022132 | 65 | 151 | 0.0 | 0.0 | 0.00 | 0.00 | 0.00 | 94 | 1012.2 |
| 20260905021631 | 66 | 151 | 0.0 | 0.0 | 0.00 | 0.00 | 0.00 | 93 | 1012.3 |
| 20260905021127 | 66 | 151 | 0.0 | 0.0 | 0.00 | 0.00 | 0.00 | 92 | 1012.3 |
| 20260905020627 | 66 | 151 | 0.0 | 0.0 | 0.00 | 0.00 | 0.00 | 92 | 1012.4 |
| 20260905020122 | 66 | 151 | 0.0 | 0.0 | 0.00 | 0.00 | 0.00 | 91 | 1012.2 |
| 20260905015621 | 67 | 151 | 0.0 | 0.0 | 0.00 | 0.00 | 0.00 | 91 | 1012.3 |
| 20260905015115 | 67 | 20 | 0.0 | 0.9 | 0.00 | 0.00 | 0.00 | 89 | 1012.2 |
| 20260905014615 | 68 | 20 | 0.0 | 0.9 | 0.00 | 0.00 | 0.00 | 89 | 1012.3 |
| 20260905014111 | 68 | 22 | 0.0 | 0.0 | 0.00 | 0.00 | 0.00 | 88 | 1012.1 |
| 20260905013607 | 68 | 60 | 0.0 | 0.0 | 0.00 | 0.00 | 0.00 | 88 | 1012.3 |
| 20260905013103 | 68 | 83 | 0.9 | 0.9 | 0.00 | 0.00 | 0.00 | 88 | 1012.4 |
| 20260905012602 | 67 | 8 | 0.0 | 0.0 | 0.00 | 0.00 | 0.00 | 90 | 1012.3 |
| 20260905012059 | 67 | 32 | 0.9 | 0.9 | 0.00 | 0.00 | 0.00 | 92 | 1012.3 |
| 20260905011555 | 67 | 25 | 0.0 | 0.9 | 0.00 | 0.00 | 0.00 | 93 | 1012.4 |
| 20260905011050 | 67 | 354 | 0.0 | 0.0 | 0.00 | 0.00 | 0.00 | 93 | 1012.4 |
| 20260905010550 | 67 | 41 | 0.0 | 0.0 | 0.00 | 0.00 | 0.00 | 92 | 1012.5 |
| 20260905010047 | 68 | 27 | 0.0 | 0.9 | 0.00 | 0.00 | 0.00 | 91 | 1012.4 |
| 20260905005542 | 68 | 296 | 1.7 | 1.7 | 0.00 | 0.00 | 0.00 | 92 | 1012.2 |
| 20260905005037 | 68 | 299 | 0.9 | 0.9 | 0.00 | 0.00 | 0.00 | 91 | 1012.2 |
| 20260905004532 | 68 | 299 | 0.9 | 0.9 | 0.00 | 0.00 | 0.00 | 90 | 1012.1 |
| 20260905004027 | 68 | 298 | 0.0 | 0.0 | 0.00 | 0.00 | 0.00 | 89 | 1012.2 |
| 20260905003523 | 68 | 297 | 0.0 | 0.0 | 0.00 | 0.00 | 0.00 | 88 | 1011.9 |
| 20260905003018 | 69 | 297 | 0.0 | 0.0 | 0.00 | 0.00 | 0.00 | 88 | 1012.1 |
| 20260905002513 | 69 | 297 | 0.0 | 0.0 | 0.00 | 0.00 | 0.00 | 87 | 1012.0 |
| 20260905002008 | 70 | 297 | 0.0 | 0.0 | 0.00 | 0.00 | 0.00 | 85 | 1012.1 |
| 20260905001503 | 71 | 297 | 0.0 | 0.0 | 0.00 | 0.00 | 0.00 | 81 | 1011.9 |
| 20260905000957 | 71 | 309 | 0.9 | 0.9 | 0.00 | 0.00 | 0.00 | 77 | 1011.8 |
| 20260905000454 | 71 | 303 | 0.9 | 1.7 | 0.00 | 0.00 | 0.00 | 78 | 1011.7 |
| 20260904235948 | 70 | 330 | 1.7 | 1.7 | 0.00 | 0.00 | 0.00 | 81 | 1011.9 |
| 20260904235444 | 69 | 289 | 0.9 | 0.9 | 0.00 | 0.00 | 0.00 | 84 | 1011.7 |
| 20260904234943 | 69 | 305 | 0.9 | 0.9 | 0.00 | 0.00 | 0.00 | 85 | 1011.8 |
| 20260904234443 | 70 | 328 | 0.9 | 0.9 | 0.00 | 0.00 | 0.00 | 84 | 1011.5 |
| 20260904233939 | 70 | 270 | 0.0 | 0.9 | 0.00 | 0.00 | 0.00 | 83 | 1011.7 |
| 20260904233434 | 70 | 269 | 0.9 | 0.9 | 0.00 | 0.00 | 0.00 | 83 | 1011.5 |
| 20260904232931 | 71 | 307 | 2.6 | 2.6 | 0.00 | 0.00 | 0.00 | 83 | 1011.4 |
| 20260904232427 | 71 | 20 | 0.0 | 0.0 | 0.00 | 0.00 | 0.00 | 81 | 1011.5 |
| 20260904231923 | 72 | 20 | 0.0 | 0.0 | 0.00 | 0.00 | 0.00 | 80 | 1011.5 |
| 20260904231424 | 71 | 19 | 0.0 | 0.0 | 0.00 | 0.00 | 0.00 | 80 | 1011.7 |
| 20260904230919 | 72 | 19 | 0.9 | 0.9 | 0.00 | 0.00 | 0.00 | 79 | 1011.4 |
| 20260904230417 | 72 | 21 | 0.0 | 0.0 | 0.00 | 0.00 | 0.00 | 78 | 1011.4 |
| 20260904225913 | 73 | 21 | 0.0 | 0.0 | 0.00 | 0.00 | 0.00 | 77 | 1011.4 |
| 20260904225411 | 73 | 21 | 0.0 | 0.0 | 0.00 | 0.00 | 0.00 | 76 | 1011.5 |
| 20260904224911 | 73 | 22 | 0.0 | 0.0 | 0.00 | 0.00 | 0.00 | 76 | 1011.3 |
| 20260904224407 | 73 | 1 | 0.9 | 1.7 | 0.00 | 0.00 | 0.00 | 75 | 1011.4 |
| 20260904223906 | 74 | 354 | 0.9 | 1.7 | 0.00 | 0.00 | 0.00 | 75 | 1011.3 |
| 20260904223406 | 74 | 325 | 0.9 | 1.7 | 0.00 | 0.00 | 0.00 | 74 | 1011.4 |
| 20260904222902 | 74 | 329 | 1.7 | 1.7 | 0.00 | 0.00 | 0.00 | 73 | 1011.2 |
| 20260904222402 | 75 | 343 | 1.7 | 1.7 | 0.00 | 0.00 | 0.00 | 72 | 1011.2 |
| 20260904221902 | 75 | 1 | 0.0 | 0.9 | 0.00 | 0.00 | 0.00 | 72 | 1011.1 |
| 20260904221357 | 75 | 30 | 0.0 | 0.0 | 0.00 | 0.00 | 0.00 | 71 | 1011.3 |
| 20260904220852 | 75 | 43 | 0.9 | 0.9 | 0.00 | 0.00 | 0.00 | 70 | 1011.0 |